FW6834 Weather Reports


Display with metric or nautical units.
time (UTC)temp
F
wind
direction
speed
MPH
gust
MPH
rain 1hr
in
rain 24hr
in
rain mn
in
humidity
%
barometer
mb
20260502223602 77 293 3.0 7.0 0.00 0.00 0.00 31 1058.6
20260502222102 78 295 5.0 6.0 0.00 0.00 0.00 30 1058.6
20260502220602 78 342 1.0 6.0 0.00 0.00 0.00 28 1058.6
20260502215102 78 323 4.0 7.0 0.00 0.00 0.00 30 1058.9
20260502210602 78 273 3.0 7.0 0.00 0.00 0.00 32 1059.6
20260502205102 78 326 8.0 8.0 0.00 0.00 0.00 31 1059.6
20260502203603 77 315 4.0 4.0 0.00 0.00 0.00 32 1059.9
20260502202601 76 91 4.0 6.0 0.00 0.00 0.00 32 1059.9
20260502201102 76 47 3.0 8.0 0.00 0.00 0.00 35 1059.9
20260502195602 76 136 3.0 6.0 0.00 0.00 0.00 33 1060.3
20260502194102 76 109 5.0 6.0 0.00 0.00 0.00 33 1060.3
20260502193102 74 104 3.0 6.0 0.00 0.00 0.00 35 1060.6
20260502184603 74 154 2.0 4.0 0.00 0.00 0.00 38 1060.6
20260502181602 74 272 4.0 5.0 0.00 0.00 0.00 36 1061.3
20260502161602 66 77 0.0 4.0 0.00 0.00 0.00 47 1061.6
20260502160602 66 84 0.0 2.0 0.00 0.00 0.00 47 1061.3
20260502150603 63 184 2.0 5.0 0.00 0.00 0.00 46 1061.6
20260502121102 51 120 5.0 5.0 0.00 0.00 0.00 65 1060.3
20260502115602 51 135 2.0 4.0 0.00 0.00 0.00 66 1060.3
20260502112603 52 158 0.0 2.0 0.00 0.00 0.00 61 1060.3
20260502111102 53 138 2.0 3.0 0.00 0.00 0.00 59 1060.3
20260502104103 54 133 3.0 3.0 0.00 0.00 0.00 57 1060.6
20260502102602 54 108 3.0 5.0 0.00 0.00 0.00 57 1061.0
20260502101102 54 152 0.0 4.0 0.00 0.00 0.00 59 1061.0
20260502064602 55 188 1.0 3.0 0.00 0.00 0.00 54 1059.3
20260502063102 55 163 0.0 3.0 0.00 0.00 0.00 53 1059.3
20260502061602 55 148 3.0 3.0 0.00 0.00 0.00 53 1059.3
20260502054602 56 161 0.0 2.0 0.00 0.00 0.00 53 1059.3
20260502053102 55 195 2.0 3.0 0.00 0.00 0.00 54 1059.3
20260502043603 57 139 3.0 4.0 0.00 0.00 0.00 53 1059.3
20260502042102 57 153 3.0 4.0 0.00 0.00 0.00 53 1059.3
20260502040603 57 166 2.0 4.0 0.00 0.00 0.00 52 1059.3
20260502035603 58 145 2.0 3.0 0.00 0.00 0.00 52 1059.3
20260502034102 58 172 1.0 3.0 0.00 0.00 0.00 51 1058.9
20260502032603 59 160 0.0 2.0 0.00 0.00 0.00 51 1058.9
20260502031102 60 142 0.0 3.0 0.00 0.00 0.00 49 1058.9
20260502025602 60 144 0.0 3.0 0.00 0.00 0.00 47 1058.9
20260502024102 60 134 0.0 3.0 0.00 0.00 0.00 45 1058.9
20260502022602 61 155 0.0 0.0 0.00 0.00 0.00 45 1058.6
20260502021102 62 150 0.0 3.0 0.00 0.00 0.00 43 1058.2
20260502014102 63 132 0.0 3.0 0.00 0.00 0.00 39 1057.9
20260502013102 64 98 0.0 3.0 0.00 0.00 0.00 38 1057.9
20260502004602 65 89 2.0 4.0 0.00 0.00 0.00 34 1057.6
20260502003102 66 113 3.0 5.0 0.00 0.00 0.00 33 1057.2
20260502001603 67 67 3.0 5.0 0.00 0.00 0.00 32 1057.2
20260501235102 68 49 3.0 6.0 0.00 0.00 0.00 29 1057.2
20260501230603 69 110 1.0 6.0 0.00 0.00 0.00 30 1056.9
20260501225102 69 165 2.0 9.0 0.00 0.00 0.00 30 1056.9